Location: Alvis C Story Elementary School
(33.0968°N, 96.6364°W)
Time: 22:13:23
(UTC+00:00)

Lacrosse 5 rocket - Pass Details

Date: 02 July 2022
Orbit: 456 x 628 km, 57.0° (Epoch: 13 August)

Event Time Altitude Azimuth Distance (km) Brightness Sun altitude
Rises 03:10:20 0° 332° (NNW) 2,599 6.2 -16.3°
Reaches altitude 10° 03:12:40 10° 344° (NNW) 1,742 4.8 -16.7°
Maximum altitude 03:16:09 29° 46° (NE) 994 2.6 -17.2°
Enters shadow 03:17:33 23° 81° (E) 1,167 2.6 -17.4°
